This demonstration page uses our WeatherBlox Daily Observations layout. Learn more.

Left ArrowRight Arrow

36.17497, -115.13722

Hourly Observations for January 3, 2022

Temp ( °F °C ) Dew Point ( °F °C ) Humidity (%) Winds ( mph kmh ) Pressure ( in mb ) Visibility ( mi km ) Precip ( " mm )
12:53 am 00:53 Clear 32 0 8 -13.3 36 36 WNW 3 6 30.37 1029 10 16 0.00 0.00
1:53 am 01:53 Clear 32 0 9 -12.8 38 38 NW 5 7 30.36 1028 10 16 0.00 0.00
2:53 am 02:53 Clear 32 0 10 -12.2 40 40 WNW 3 6 30.36 1028 10 16 0.00 0.00
3:53 am 03:53 Clear 31 -0.6 11 -11.7 43 43 W 5 7 30.34 1028 10 16 0.00 0.00
4:53 am 04:53 Clear 29 -1.7 11 -11.7 47 47 NNW 5 7 30.35 1028 10 16 0.00 0.00
5:53 am 05:53 Clear 29 -1.7 12 -11.1 49 49 WNW 7 11 30.35 1028 10 16 0.00 0.00
6:53 am 06:53 Sunny 30 -1.1 12 -11.1 47 47 NW 7 11 30.35 1028 10 16 0.00 0.00
7:53 am 07:53 Sunny 34 1.1 12 -11.1 40 40 W 3 6 30.35 1028 10 16 0.00 0.00
8:53 am 08:53 Sunny 40 4.4 12 -11.1 32 32 Calm 30.35 1028 10 16 0.00 0.00
9:53 am 09:53 Sunny 42 5.6 11 -11.7 28 28 SSE 5 7 30.37 1028 10 16 0.00 0.00
10:53 am 10:53 Sunny 45 7.2 11 -11.7 25 25 ESE 7 11 30.33 1027 10 16 0.00 0.00
11:53 am 11:53 Sunny 47 8.3 11 -11.7 23 23 SE 8 13 30.29 1026 10 16 0.00 0.00
12:53 pm 12:53 Sunny 48 8.9 11 -11.7 22 22 ESE 6 9 30.25 1024 10 16 0.00 0.00
1:53 pm 13:53 Sunny 48 8.9 12 -11.1 23 23 SSE 7 11 30.23 1024 10 16 0.00 0.00
2:53 pm 14:53 Sunny 49 9.4 11 -11.7 21 21 E 5 7 30.22 1023 10 16 0.00 0.00
3:53 pm 15:53 Sunny 49 9.4 11 -11.7 21 21 E 3 6 30.22 1024 10 16 0.00 0.00
4:53 pm 16:53 Clear 47 8.3 11 -11.7 23 23 Calm 30.23 1024 10 16 0.00 0.00
5:53 pm 17:53 Clear 45 7.2 11 -11.7 25 25 E 3 6 30.24 1024 10 16 0.00 0.00
6:53 pm 18:53 Clear 43 6.1 13 -10.6 29 29 WNW 5 7 30.25 1024 10 16 0.00 0.00
7:53 pm 19:53 Clear 43 6.1 15 -9.4 32 32 Calm 30.24 1024 10 16 0.00 0.00
8:53 pm 20:53 Clear 41 5 15 -9.4 35 35 Calm 30.24 1024 10 16 0.00 0.00
9:53 pm 21:53 Clear 37 2.8 15 -9.4 41 41 WNW 5 7 30.24 1024 10 16 0.00 0.00
10:53 pm 22:53 Clear 37 2.8 17 -8.3 44 44 NW 6 9 30.24 1024 10 16 0.00 0.00
11:53 pm 23:53 Clear 37 2.8 16 -8.9 42 42 NW 7 11 30.23 1024 10 16 0.00 0.00

Powered by AerisWeather